Regional Weather Roundup
Issued by NWS

Home | Current Version | Previous Version | Text Only | Print | Product List | Glossary On
Versions: 1 2 3 4 5 6 7 8 9 10 11 12 13 14 15 16 17 18 19 20 21 22 23 24 25 26 27 28 29 30 31 32 33 34 35 36 37 38 39 40 41 42 43 44 45 46 47 48 49 50
000
ASCA44 KEWX 291320
RWRMX

LATIN AMERICA AND CARIBBEAN REGIONAL WEATHER ROUNDUP
NATIONAL WEATHER SERVICE AUSTIN/SAN ANTONIO TX
800 AM CDT WED MAR 29 2017

NOTE: "FAIR" INDICATED FEW OR NO CLOUDS BELOW 12,000 FEET WITH NO
SIGNIFICANT WEATHER AND/OR OBSTRUCTIONS TO VISIBILITY.

BAJA CALIFORNIA

CITY           SKY/WX    TMP DP  RH WIND       PRES   REMARKS
LA PAZ         PTCLDY    50  45  81 S5        29.94  WCI  48
MEXICALI       CLEAR     59  21  23 N7        29.99
S.J. DEL CABO  CLEAR     64  43  45 W12       29.90
TIJUANA        CLEAR     52  37  58 CALM      30.01

NORTHWESTERN MEXICO

CITY           SKY/WX    TMP DP  RH WIND       PRES   REMARKS
CULIACAN       CLEAR     57  54  88 CALM      29.87
DURANGO        PTCLDY    41  27  56 S7        30.10  WCI  36
HERMOSILLO     CLEAR     55  41  58 CALM      29.95
CD. JUAREZ     MOCLDY    54  32  43 W23       29.79
OBREGON        CLEAR     50  45  81 NE3       29.86

NORTHEASTERN MEXICO

CITY           SKY/WX    TMP DP  RH WIND       PRES   REMARKS
CHIHUAHUA      CLEAR     32  21  64 S5        29.98  WCI  27
MATAMOROS      MOCLDY    77  73  88 S9G21     29.69
MONCLOVA         N/A    N/A N/A N/A MISG        N/A
MONTERREY      CLEAR     72  36  26 NW17G35   29.78R
NUEVO LAREDO   CLEAR     68  54  60 NW7       29.76
PIEDRAS NEGRAS CLEAR     55  52  88 NW5       29.79
REYNOSA        PTCLDY    73  66  78 SW5       29.70
SALTILLO       CLEAR     54  36  50 S9        29.99R
TORREON        CLEAR     59  21  23 CALM      29.93
CD. VICTORIA   FOG       68  68 100 NW2       29.71  VSB 1

WESTERN MEXICO

CITY           SKY/WX    TMP DP  RH WIND       PRES   REMARKS
AGUASCALIENTES MOCLDY    46  16  29 CALM      30.17
COLIMA         CLEAR     68  57  68 CALM      30.00
DEL BAJIO      PTCLDY    50  30  46 N5        30.19R WCI  48
GUADALAJARA    PTCLDY    46  28  49 CALM      30.11
MANZANILLO     MOCLDY    66  64  94 N7        29.85
MAZATLAN       CLEAR     54  52  94 NE6       29.92R
P. VALLARTA    PTCLDY    63  61  94 CALM      29.87R
URUAPAN        PTCLDY    52  46  82 CALM      30.11
ZACATECAS      CLEAR     48  10  21 S10       30.15  WCI  44

CENTRAL MEXICO

CITY           SKY/WX    TMP DP  RH WIND       PRES   REMARKS
CUERNAVACA     CLEAR     63  39  42 N3        30.05
MEXICO CITY    CLEAR     55  32  41 SW5       30.22R
MORELIA        CLEAR     52  37  58 CALM      30.15
POZA RICA      CLOUDY    77  75  94 N5        29.77  FOG
QUERETARO      PTCLDY    50  34  53 CALM      30.19R
S. LUIS POTOSI MOCLDY    54   1  12 SW5       30.09
TAMPICO        CLOUDY    77  73  88 SE7       29.70R
TOLUCA         PTCLDY    36  32  87 CALM      30.31

SOUTHERN MEXICO

CITY           SKY/WX    TMP DP  RH WIND       PRES   REMARKS
ACAPULCO       PTCLDY    73  68  83 N5        29.88R
B. DE HUATULCO CLEAR     73  63  68 W14       29.90
OAXACA         CLEAR     57  54  88 N3        30.15R
P. ESCONDIDO   PTCLDY    77  72  83 CALM      29.95
VERACRUZ       CLEAR     73  70  88 SW6       29.70R
ZIHUATANEJO    PTCLDY    64  59  82 CALM      29.89

YUCATAN PENINSULA

CITY           SKY/WX    TMP DP  RH WIND       PRES   REMARKS
CAMPECHE       SUNNY     75  72  88 E12G23    29.81R
CANCUN         MOSUNNY   77  68  73 SE14      29.92R
CHETUMAL       MOSUNNY   81  72  74 SE18      29.87
CD. DEL CARMEN SUNNY     77  70  78 SE20      29.79
COZUMEL        MOSUNNY   77  72  83 SE8       29.90S
MERIDA         SUNNY     72  66  83 SE13      29.88R
MINATITLAN     CLEAR     75  70  83 CALM      29.72
TAPACHULA      PTSUNNY   77  72  83 CALM      29.85R
TUX. GUTIERREZ PTSUNNY   68  59  73 SW2       29.91R
VILLAHERMOSA   SUNNY     72  68  88 E8        29.79R

CENTRAL AMERICA

CITY           SKY/WX    TMP DP  RH WIND       PRES   REMARKS
BELIZE CITY    MOSUNNY   81  75  83 E9        29.86R
MANAGUA        MOSUNNY   77  66  69 E9        29.89S

CARIBBEAN

CITY           SKY/WX    TMP DP  RH WIND       PRES   REMARKS
ARUBA          MOSUNNY   84  75  74 E16       29.89R HX  92
KINGSTON       MOSUNNY   79  68  69 N7        29.94R
NASSAU         PTSUNNY   75  64  69 E3        30.06R
SAN JUAN       MOSUNNY   81  73  78 CALM      29.98R
SANTO DOMINGO  MOSUNNY   79  73  83 N8        29.94S
ST. CROIX      MOSUNNY   82  73  74 N7        29.97
ST. KITTS      MOSUNNY   82  73  74 MISG      29.97R
ST. MAARTEN    MOSUNNY   82  77  83 VRB2      29.94S HX  91
ST. THOMAS     MOSUNNY   81  72  74 N7        29.96

$$





USA.gov is the U.S. government's official web portal to all federal, state and local government web resources and services.